Regional Weather Roundup
Issued by NWS Wakefield, VA

Home | Current Version | Previous Version | Graphics & Text | Print | Product List | Glossary On
Versions: 1 2 3 4 5 6 7 8 9 10 11 12 13 14 15 16 17 18 19 20 21 22 23 24 25 26 27
000
ASUS41 KAKQ 190015
RWRAKQ

REGIONAL WEATHER ROUNDUP
NATIONAL WEATHER SERVICE WAKEFIELD VA
800 PM EDT MON SEP 18 2017

Note: "fair" indicates few or no clouds below 12,000 feet with no
significant weather and/or obstructions to visibility. * = Denotes
station may not report precipitation (e.g., rain,snow,etc.),
thunder or fog.

VAZ042-051-052>054-056-190100-
NORTHERN VIRGINIA

CITY           SKY/WX    TMP DP  RH WIND       PRES   REMARKS
WASH NATIONAL  PTCLDY    73  68  84 NE10      30.05R
DULLES         MOCLDY    72  67  84 NE9       30.04R
FORT BELVOIR   CLEAR     70  66  88 CALM      30.03R
QUANTICO       PTCLDY    75  69  81 NE10      30.04R
FREDERICKSBRG* MOCLDY    73  68  84 NE6       30.02R
STAFFORD*      MOCLDY    71  69  94 NE7       30.07R
WARRENTON      MOCLDY    73  64  73 NE3       30.04R
CULPEPER*      CLEAR     71  67  87 CALM      30.04R
MANASSAS*      CLOUDY    74  67  78 E7        30.04R
LEESBURG*      CLEAR     72  70  94 NE5       30.06R
WINCHESTER     CLEAR     68  63  83 CALM      30.05R
FRONT ROYAL*   PTCLDY    72  64  78 CALM      30.03S
LURAY*         PTCLDY    72  64  78 NE3       30.04R
$$

VAZ048-049-060>072-079>083-190100-
CENTRAL AND SOUTH CENTRAL VIRGINIA

CITY           SKY/WX    TMP DP  RH WIND       PRES   REMARKS
RICHMOND       PTCLDY    73  68  84 N10       30.00R
CHESTERFIELD*  NOT AVBL
PETERSBURG*    CLEAR     73  65  78 N6        30.00R
HANOVER        CLEAR     71  68  90 CALM      30.02R
TAPPAHANNOCK*  PTCLDY    75  66  72 N5        30.01R
QUINTON*       CLOUDY    73  71  94 N7        29.99R
CHARLOTTSVILLE PTCLDY    75  67  76 NE5       30.03R
GORDONSVILLE*  CLEAR     68  67  96 CALM      30.02R
ORANGE*        PTCLDY    70  64  83 CALM      30.03R
LOUISA*        CLEAR     70  64  83 NE3       30.03R
BUMPASS*       FAIR      68  68 100 CALM      30.03R
FARMVILLE*     CLEAR     72  69  92 NE5       30.00R
CREWE*         FAIR      69  69 100 CALM      30.00R
FORT PICKETT*  FAIR      69  69 100 N9        30.00R
CHASE CITY*    FAIR      72  72 100 CALM      30.01R
CLARKSVILLE*   FAIR      73  68  83 E3        29.99R
SOUTH HILL*    CLEAR     69  68  97 N7        30.05R
LAWRENCEVILLE* FAIR      70  68  95 CALM      29.99R
EMPORIA*       MOCLDY    70  68  94 NW3       29.99R
$$

VAZ088>098-190100-
SOUTHEAST VIRGINIA

CITY           SKY/WX    TMP DP  RH WIND       PRES   REMARKS
NORFOLK        CLOUDY    75  70  84 N21G26    29.95R
VIRGINIA BEACH CLOUDY    73  67  81 N15G23    29.94R
NORFOLK NAVAL  CLOUDY    76  68  76 NE15G29   29.97R
WEST POINT*    PTCLDY    72  70  94 NE3       30.00R
SALUDA*        MOCLDY    73  70  88 N7        29.98S
NEWPORT NEWS   CLOUDY    73  69  87 NE8       29.97R
LANGLEY AFB    CLOUDY    75  70  84 NE15G23   29.96R
FORT EUSTIS    CLOUDY    74  69  82 NE6       29.95R
WILLIAMSBURG*  MOCLDY    75  70  83 CALM      29.99R
HR EXEC AP*    CLOUDY    74  70  87 NE8G22    29.96R
FRANKLIN*      CLOUDY    73  69  87 N6        29.97R
US460-WAKEFLD  MOCLDY    74  70  87 VRB5      29.97R
$$

VAZ020-022-025-037-045-190100-
WEST CENTRAL AND SOUTHWEST VIRGINIA

CITY           SKY/WX    TMP DP  RH WIND       PRES   REMARKS
STAUNTON*      CLEAR     69  64  85 CALM      30.06S
WAYNESBORO*    CLEAR     69  66  90 S3        30.06R
HOT SPRINGS VA PTCLDY    64  57  79 CALM      30.17S
LYNCHBURG      CLEAR     69  64  84 CALM      30.03R
DANVILLE       CLEAR     69  67  93 CALM      30.00R
SOUTH BOSTON*  FAIR      71  69  93 CALM      30.00R
MARTINSVILLE   CLEAR     68  65  92 CALM      30.05R
ROANOKE        PTCLDY    74  65  73 N3        30.06R
BLACKSBURG     CLOUDY    70  64  81 E3        30.12R
DUBLIN*        CLOUDY    73  63  68 E3        30.09S
MARION*        CLEAR     68  61  78 CALM      30.12S
HILLSVILLE*    CLOUDY    69  61  77 CALM      30.10S
RICHLANDS*     MOCLDY    69  57  64 CALM      30.12R
WISE*          CLEAR     68  55  64 N3        30.13R
ABINGDON*      CLEAR     69  61  75 CALM      30.09R
$$

MDZ021>025-VAZ099-100-190100-
SOUTHERN MARYLAND AND THE DELMARVA PENINSULA

CITY           SKY/WX    TMP DP  RH WIND       PRES   REMARKS
PATUXENT RIVER MOCLDY    73  69  87 NE9       30.00S
BAY BRIDGE APT MOCLDY    73  70  88 N6        30.03R
LEONARDTOWN    CLOUDY    72  68  88 CALM      30.03R
DOVER          PTCLDY    72  66  83 NE15G21   30.03R
GEORGETOWN     MOCLDY    73  68  84 NE12      30.02R
EASTON         PTCLDY    73  66  78 NE6       30.06R
CAMBRIDGE      PTCLDY    73  68  83 NE5G12    30.01S
SALISBURY      CLOUDY    72  69  90 NE12      30.00S
OCEAN CITY     CLOUDY    72  70  93 NE13G22   29.99S
WALLOPS ISLAND CLOUDY    72  70  93 N12       29.98S
ACCOMACK*      CLOUDY    72  68  89 NE8       29.97R
$$

NCZ012>017-030>032-190100-
NORTH CENTRAL AND EASTERN NORTH CAROLINA

CITY           SKY/WX    TMP DP  RH WIND       PRES   REMARKS
ROANOKE RAPIDS FAIR      72  68  88 MISG      29.97R
RALEIGH        PTCLDY    72  65  78 NE5       29.98R
ELIZABETH CITY PTCLDY    73  71  93 N16       29.93R
AHOSKIE*         N/A     74  69  83 N5        29.96R
EDENTON*       CLOUDY    75  71  87 N9G18     29.94R
CURRITUCK*     PTCLDY    73  69  87 N13G24    29.93R
KILL DEVIL HLS CLOUDY    72  71  96 N12G22    29.88S FOG
MANTEO         LGT RAIN  72  71  96 N22G30    29.89F
CAPE HATTERAS  MOCLDY    75  72  90 N12G23    29.86R
TARBORO*       NOT AVBL
GOLDSBORO      CLEAR     74  72  92 NW6       29.94R
WASHINGTON     CLOUDY    77  67  72 NE8       29.93R
GREENVILLE     CLOUDY    75  70  83 N5        29.96R
NEW BERN       CLOUDY    78  67  68 N10       29.93R
WILMINGTON     CLEAR     75  69  81 NW7       29.92S
$$

VAZ048-190100-
ELSEWHERE

CITY           SKY/WX    TMP DP  RH WIND       PRES   REMARKS
HARRISBURG PA  PTCLDY    72  67  84 VRB3      30.06R
BALTIMORE      PTCLDY    70  68  93 NW5       30.04R
ANNAPOLIS      CLEAR     76  72  87 N7        30.03R
ANDREWS AFB    CLEAR     69  66  91 N7        30.03R
PHILADELPHIA   MOCLDY    72  65  78 NE8       30.06R
HENDERSON NC   CLEAR     68  63  83 CALM      29.99R
GREENSBORO     MOCLDY    75  67  76 N5        30.01R
ROCKY MOUNT    CLEAR     72  69  90 N7        29.96R
$$

VAZ100-190100-
MARINE

STATION/POSITION TIME  TEMP    WIND        PRES    WAVE   SWELL
                       AIR SEA DIR/SP/G            HT/PER HT/PER
                 (UTC) (F)     (DEG/KT/KT) (MB)    (FT/S) (FT/S)
BRANDYWINE LGT   2348           50/ 21/ 23   N/A
CAPE MAY NJ      2348           40/  9/ 15   N/A
LEWES DE         2348           50/ 17/ 20   N/A
15NM E FENWICK I 2350   71 72   20/ 21/ 25 1015.2S   8/14   5/14
OCEAN-CITY-INLET 2348           40/  9/ 18   N/A
WACHAPREAGUE VA  2348           10/  8/ 16   N/A
THOMAS POINT MD  0000   74 76   10/ 12/ 14   N/A
GOOSES REEF MD   0000   75 75   40/ 12/ 16 1016.7    1/ 8
COVE POINT MD    2348           60/ 15/ 17   N/A
SOLOMONS ISLAND  2348           30/ 10/ 12   N/A
BISHOPS HEAD MD  2348           30/ 12/ 17   N/A
PINEY POINT MD   2348           60/  7/  8   N/A
POTOMAC MD       0000   76 76   50/ 16/ 17 1015.1    1/ 2
CAMBRIDGE MD     2330   74 77              1017.1S
LEWISETTA VA     2348           50/  7/ 14   N/A
RAPPAHANNOCK LGT 2348           20/ 22/ 24   N/A
STINGRAY PT      0000   76 76   60/ 17/ 21 1015.2    2/ 3
YORK RVR RNG VA  2348           50/ 18/ 21   N/A
YORKTOWN VA      2348           30/ 10/ 15   N/A
JAMESTOWN VA     0000      78   30/ 10/ 14   N/A     0
DOMINION TERM VA 2348           40/  6/ 10   N/A
KIPTOPEKE VA     2348           30/  8/ 15   N/A
CHES BAY BRIDGE  2348           30/ 18/ 23   N/A
CAPE HENRY VA    2348           10/ 23/ 29   N/A
WILLOUBY STN VA  2348           30/ 22/ 24   N/A
S CRANEY ISL VA  2348           30/ 18/ 23   N/A
CAPE HENRY BUOY  0000      74                N/A     8/ 6   3/11
1ST LANDING BUOY 0000   74 75              1013.9    4/ 5
64NM E OF VA BCH 2350   73 73  360/ 23/ 29 1010.4F  12/12  10/12
DUCK PIER NC     2348           10/ 22/ 31   N/A
44100 DUCK FRF   2335      74                N/A    11/12   8/12
44056 DUCK FRF   0000      76                N/A    11/13   7/13
OREGON INLET NC  2348          350/ 17/ 23   N/A
HATTERAS NC      2348           10/ 24/ 29   N/A
DIAMOND SHLS NC  2350   76 82  350/ 27/ 33 1009.3R  11/11   8/11
CAPE LOOKOUT NC  0000   76     360/ 16/ 19 1012.2R
$$




USA.gov is the U.S. government's official web portal to all federal, state and local government web resources and services.